Regional Weather Roundup
Issued by NWS

Home | Current Version | Previous Version | Graphics & Text | Print | Product List | Glossary On
Versions: 1 2 3 4 5 6 7 8 9 10 11 12 13 14 15 16 17 18 19 20 21 22 23 24 25 26 27 28 29 30 31 32 33 34 35 36 37 38 39 40 41 42 43 44 45 46 47 48 49 50
000
ASUS43 KLMK 232202
RWRKY
KENTUCKY REGIONAL WEATHER ROUNDUP
NATIONAL WEATHER SERVICE LOUISVILLE KY
600 PM EDT THU MAR 23 2017

NOTE "FAIR" INDICATES FEW OR NO CLOUDS BELOW 12,000 FEET
WITH NO SIGNIFICANT WEATHER AND/OR OBSTRUCTIONS TO VISIBILITY.

KYZ001>023-026-027-061>063-070>075-232300-
WESTERN AND SOUTH CENTRAL KENTUCKY

CITY           SKY/WX    TMP DP  RH WIND       PRES   REMARKS
PADUCAH        SUNNY     60  43  53 E10       30.17F
HENDERSON      MOSUNNY   48  37  66 SE10      30.20F
OWENSBORO      PTSUNNY   54  40  59 SE6       30.24F
HOPKINSVILLE   NOT AVBL
BOWLING GREEN  CLOUDY    62  45  53 SE13      30.24F
GLASGOW        NOT AVBL
$$

KYZ024-025-028>034-038-045-046-053-232300-
NORTH CENTRAL KENTUCKY

CITY           SKY/WX    TMP DP  RH WIND       PRES   REMARKS
LOUISVILLE/SDF PTSUNNY   63  29  27 S12       30.24F
LOUISVILLE/LOU CLOUDY    62  30  29 VRB7      30.25F
FORT KNOX      PTSUNNY   60  34  38 SE13      30.24F
$$

KYZ035>037-039>044-047>052-055>060-089>105-232300-
NORTHEAST KENTUCKY

CITY           SKY/WX    TMP DP  RH WIND       PRES   REMARKS
LEXINGTON      CLOUDY    63  29  27 S9        30.27F
COVINGTON      MOSUNNY   60  26  27 S8        30.25F
FRANKFORT      PTSUNNY   62  29  28 SE8       30.25F
$$

KYZ054-064>069-076>088-106>120-232300-
SOUTHEAST KENTUCKY

CITY           SKY/WX    TMP DP  RH WIND       PRES   REMARKS
JACKSON        SUNNY     68  27  21 VRB5      30.28F
LONDON         SUNNY     65  28  24 SE9       30.28F
SOMERSET       MOSUNNY   64  30  27 S3        30.28S
MIDDLESBORO    MOSUNNY   65  35  33 S9        30.32F
MONTICELLO     CLOUDY    65  37  35 VRB6      30.28F
$$





USA.gov is the U.S. government's official web portal to all federal, state and local government web resources and services.